TimeMST,TemperatureF,Dew PointF,Humidity,Sea Level PressureIn,VisibilityMPH,Wind Direction,Wind SpeedMPH,Gust SpeedMPH,PrecipitationIn,Events,Conditions,WindDirDegrees,DateUTC
12:53 AM,52.0,33.1,49,29.57,10.0,West,31.1,48.3,N/A,,Overcast,270,2012-12-03 07:53:00
1:53 AM,45.0,32.0,60,29.63,10.0,NW,13.8,-,N/A,,Partly Cloudy,310,2012-12-03 08:53:00
2:53 AM,37.9,30.9,76,29.73,10.0,North,21.9,-,N/A,,Partly Cloudy,350,2012-12-03 09:53:00
3:53 AM,37.0,30.0,76,29.80,10.0,North,19.6,-,N/A,,Partly Cloudy,360,2012-12-03 10:53:00
4:53 AM,39.9,28.0,63,29.83,10.0,NW,11.5,-,N/A,,Mostly Cloudy,310,2012-12-03 11:53:00
5:53 AM,33.1,25.0,72,29.92,10.0,WNW,9.2,-,0.00,,Scattered Clouds,290,2012-12-03 12:53:00
6:53 AM,28.9,25.0,85,29.97,10.0,NNW,3.5,-,N/A,,Clear,340,2012-12-03 13:53:00
8:53 AM,35.1,28.0,76,29.97,10.0,Calm,Calm,-,N/A,,Clear,0,2012-12-03 15:53:00
9:53 AM,43.0,17.1,35,29.98,10.0,West,18.4,25.3,N/A,,Clear,280,2012-12-03 16:53:00
10:53 AM,45.0,16.0,31,29.97,10.0,WNW,17.3,23.0,N/A,,Clear,290,2012-12-03 17:53:00
11:53 AM,46.9,16.0,29,29.93,10.0,West,25.3,-,N/A,,Clear,280,2012-12-03 18:53:00
12:53 PM,48.0,14.0,26,29.94,10.0,WNW,21.9,31.1,N/A,,Clear,290,2012-12-03 19:53:00
1:53 PM,48.9,12.0,23,29.96,10.0,West,18.4,29.9,N/A,,Clear,280,2012-12-03 20:53:00
2:53 PM,48.0,14.0,26,29.99,10.0,WNW,19.6,-,N/A,,Clear,290,2012-12-03 21:53:00
3:53 PM,45.0,14.0,29,30.04,10.0,West,18.4,-,N/A,,Clear,280,2012-12-03 22:53:00
4:53 PM,39.0,10.0,30,30.08,10.0,WSW,10.4,-,N/A,,Clear,250,2012-12-03 23:53:00
5:53 PM,35.1,12.0,39,30.15,10.0,WSW,8.1,-,N/A,,Clear,250,2012-12-04 00:53:00
6:53 PM,34.0,12.9,42,30.17,10.0,West,11.5,-,N/A,,Clear,260,2012-12-04 01:53:00
7:53 PM,32.0,12.9,45,30.19,10.0,West,10.4,-,N/A,,Clear,260,2012-12-04 02:53:00
8:53 PM,37.0,15.1,41,30.20,10.0,Variable,4.6,-,N/A,,Clear,0,2012-12-04 03:53:00
9:53 PM,35.1,15.1,44,30.18,10.0,West,13.8,-,N/A,,Clear,260,2012-12-04 04:53:00
11:53 PM,25.0,14.0,63,30.24,10.0,Calm,Calm,-,N/A,,Clear,0,2012-12-04 06:53:00